Year,Month,Day,Hour,Minute,Value (Times are PST for temperature in C)
2007,09,19,00,00,10.70
2007,09,19,00,01,10.70
2007,09,19,00,02,10.70
2007,09,19,00,03,10.70
2007,09,19,00,04,10.70
2007,09,19,00,05,10.70
2007,09,19,00,06,10.70
2007,09,19,00,07,10.70
2007,09,19,00,08,10.70
2007,09,19,00,09,10.60
2007,09,19,00,10,10.70
2007,09,19,00,11,10.70
2007,09,19,00,12,10.70
2007,09,19,00,13,10.70
2007,09,19,00,14,10.60
2007,09,19,00,15,10.60
2007,09,19,00,16,10.60
2007,09,19,00,17,10.60
2007,09,19,00,18,10.60
2007,09,19,00,19,10.60
2007,09,19,00,20,10.60
2007,09,19,00,21,10.60
2007,09,19,00,22,10.60
2007,09,19,00,23,10.60
2007,09,19,00,24,10.60
2007,09,19,00,25,10.60
2007,09,19,00,26,10.60
2007,09,19,00,27,10.60
2007,09,19,00,28,10.60
2007,09,19,00,29,10.60
2007,09,19,00,30,10.60
2007,09,19,00,31,10.60
2007,09,19,00,32,10.60
2007,09,19,00,33,10.50
2007,09,19,00,34,10.50
2007,09,19,00,35,10.50
2007,09,19,00,36,10.50
2007,09,19,00,37,10.50
2007,09,19,00,38,10.50
2007,09,19,00,39,10.40
2007,09,19,00,40,10.40
2007,09,19,00,41,10.40
2007,09,19,00,42,10.40
2007,09,19,00,43,10.40
2007,09,19,00,44,10.40
2007,09,19,00,45,10.40
2007,09,19,00,46,10.40
2007,09,19,00,47,10.40
2007,09,19,00,48,10.40
2007,09,19,00,49,10.40
2007,09,19,00,50,10.40
2007,09,19,00,51,10.40
2007,09,19,00,52,10.30
2007,09,19,00,53,10.30
2007,09,19,00,54,10.30
2007,09,19,00,55,10.30
2007,09,19,00,56,10.30
2007,09,19,00,57,10.30
2007,09,19,00,58,10.30
2007,09,19,00,59,10.30
2007,09,19,01,00,10.30
2007,09,19,01,01,10.30
2007,09,19,01,02,10.30
2007,09,19,01,03,10.30
2007,09,19,01,04,10.30
2007,09,19,01,05,10.30
2007,09,19,01,06,10.30
2007,09,19,01,07,10.30
2007,09,19,01,08,10.20
2007,09,19,01,09,10.20
2007,09,19,01,10,10.20
2007,09,19,01,11,10.20
2007,09,19,01,12,10.20
2007,09,19,01,13,10.20
2007,09,19,01,14,10.20
2007,09,19,01,15,10.20
2007,09,19,01,16,10.20
2007,09,19,01,17,10.20
2007,09,19,01,18,10.20
2007,09,19,01,19,10.20
2007,09,19,01,20,10.20
2007,09,19,01,21,10.20
2007,09,19,01,22,10.20
2007,09,19,01,23,10.20
2007,09,19,01,24,10.20
2007,09,19,01,25,10.20
2007,09,19,01,26,10.20
2007,09,19,01,27,10.20
2007,09,19,01,28,10.20
2007,09,19,01,29,10.20
2007,09,19,01,30,10.20
2007,09,19,01,31,10.20
2007,09,19,01,32,10.20
2007,09,19,01,33,10.20
2007,09,19,01,34,10.20
2007,09,19,01,35,10.20
2007,09,19,01,36,10.20
2007,09,19,01,37,10.20
2007,09,19,01,38,10.20
2007,09,19,01,39,10.20
2007,09,19,01,40,10.20
2007,09,19,01,41,10.20
2007,09,19,01,42,10.20
2007,09,19,01,43,10.20
2007,09,19,01,44,10.20
2007,09,19,01,45,10.20
2007,09,19,01,46,10.20
2007,09,19,01,47,10.20
2007,09,19,01,48,10.20
2007,09,19,01,49,10.20
2007,09,19,01,50,10.20
2007,09,19,01,51,10.20
2007,09,19,01,52,10.20
2007,09,19,01,53,10.20
2007,09,19,01,54,10.20
2007,09,19,01,55,10.20
2007,09,19,01,56,10.20
2007,09,19,01,57,10.20
2007,09,19,01,58,10.20
2007,09,19,01,59,10.20
2007,09,19,02,00,10.20
2007,09,19,02,01,10.20
2007,09,19,02,02,10.20
2007,09,19,02,03,10.20
2007,09,19,02,04,10.20
2007,09,19,02,05,10.20
2007,09,19,02,06,10.20
2007,09,19,02,07,10.20
2007,09,19,02,08,10.20
2007,09,19,02,09,10.20
2007,09,19,02,10,10.20
2007,09,19,02,11,10.20
2007,09,19,02,12,10.20
2007,09,19,02,13,10.20
2007,09,19,02,14,10.20
2007,09,19,02,15,10.20
2007,09,19,02,16,10.10
2007,09,19,02,17,10.10
2007,09,19,02,18,10.10
2007,09,19,02,19,10.10
2007,09,19,02,20,10.20
2007,09,19,02,21,10.10
2007,09,19,02,22,10.10
2007,09,19,02,23,10.10
2007,09,19,02,24,10.20
2007,09,19,02,25,10.20
2007,09,19,02,26,10.20
2007,09,19,02,27,10.20
2007,09,19,02,28,10.20
2007,09,19,02,29,10.20
2007,09,19,02,30,10.20
2007,09,19,02,31,10.20
2007,09,19,02,32,10.20
2007,09,19,02,33,10.20
2007,09,19,02,34,10.20
2007,09,19,02,35,10.20
2007,09,19,02,36,10.20
2007,09,19,02,37,10.20
2007,09,19,02,38,10.20
2007,09,19,02,39,10.10
2007,09,19,02,40,10.10
2007,09,19,02,41,10.10
2007,09,19,02,42,10.10
2007,09,19,02,43,10.10
2007,09,19,02,44,10.10
2007,09,19,02,45,10.10
2007,09,19,02,46,10.10
2007,09,19,02,47,10.10
2007,09,19,02,48,10.10
2007,09,19,02,49,10.10
2007,09,19,02,50,10.10
2007,09,19,02,51,10.10
2007,09,19,02,52,10.10
2007,09,19,02,53,10.10
2007,09,19,02,54,10.00
2007,09,19,02,55,10.00
2007,09,19,02,56,10.00
2007,09,19,02,57,10.00
2007,09,19,02,58,10.00
2007,09,19,02,59,10.00
2007,09,19,03,00,9.90
2007,09,19,03,01,9.90
2007,09,19,03,02,9.90
2007,09,19,03,03,9.90
2007,09,19,03,04,9.90
2007,09,19,03,05,9.80
2007,09,19,03,06,9.80
2007,09,19,03,07,9.80
2007,09,19,03,08,9.80
2007,09,19,03,09,9.70
2007,09,19,03,10,9.70
2007,09,19,03,11,9.70
2007,09,19,03,12,9.70
2007,09,19,03,13,9.70
2007,09,19,03,14,9.60
2007,09,19,03,15,9.60
2007,09,19,03,16,9.60
2007,09,19,03,17,9.60
2007,09,19,03,18,9.60
2007,09,19,03,19,9.50
2007,09,19,03,20,9.50
2007,09,19,03,21,9.50
2007,09,19,03,22,9.40
2007,09,19,03,23,9.40
2007,09,19,03,24,9.30
2007,09,19,03,25,9.30
2007,09,19,03,26,9.30
2007,09,19,03,27,9.20
2007,09,19,03,28,9.20
2007,09,19,03,29,9.20
2007,09,19,03,30,9.10
2007,09,19,03,31,9.10
2007,09,19,03,32,9.10
2007,09,19,03,33,9.00
2007,09,19,03,34,9.00
2007,09,19,03,35,8.90
2007,09,19,03,36,8.90
2007,09,19,03,37,8.90
2007,09,19,03,38,8.90
2007,09,19,03,39,8.90
2007,09,19,03,40,8.80
2007,09,19,03,41,8.80
2007,09,19,03,42,8.80
2007,09,19,03,43,8.80
2007,09,19,03,44,8.80
2007,09,19,03,45,8.80
2007,09,19,03,46,8.80
2007,09,19,03,47,8.80
2007,09,19,03,48,8.70
2007,09,19,03,49,8.70
2007,09,19,03,50,8.70
2007,09,19,03,51,8.70
2007,09,19,03,52,8.70
2007,09,19,03,53,8.80
2007,09,19,03,54,8.80
2007,09,19,03,55,8.80
2007,09,19,03,56,8.80
2007,09,19,03,57,8.80
2007,09,19,03,58,8.90
2007,09,19,03,59,8.90
2007,09,19,04,00,8.90
2007,09,19,04,01,9.00
2007,09,19,04,02,9.00
2007,09,19,04,03,9.10
2007,09,19,04,04,9.10
2007,09,19,04,05,9.10
2007,09,19,04,06,9.20
2007,09,19,04,07,9.20
2007,09,19,04,08,9.20
2007,09,19,04,09,9.20
2007,09,19,04,10,9.30
2007,09,19,04,11,9.30
2007,09,19,04,12,9.30
2007,09,19,04,13,9.30
2007,09,19,04,14,9.30
2007,09,19,04,15,9.30
2007,09,19,04,16,9.30
2007,09,19,04,17,9.40
2007,09,19,04,18,9.30
2007,09,19,04,19,9.30
2007,09,19,04,20,9.30
2007,09,19,04,21,9.30
2007,09,19,04,22,9.30
2007,09,19,04,23,9.30
2007,09,19,04,24,9.20
2007,09,19,04,25,9.20
2007,09,19,04,26,9.20
2007,09,19,04,27,9.20
2007,09,19,04,28,9.10
2007,09,19,04,29,9.10
2007,09,19,04,30,9.10
2007,09,19,04,31,9.10
2007,09,19,04,32,9.00
2007,09,19,04,33,9.00
2007,09,19,04,34,9.00
2007,09,19,04,35,8.90
2007,09,19,04,36,8.90
2007,09,19,04,37,8.90
2007,09,19,04,38,8.90
2007,09,19,04,39,8.90
2007,09,19,04,40,8.90
2007,09,19,04,41,8.90
2007,09,19,04,42,8.90
2007,09,19,04,43,8.90
2007,09,19,04,44,8.90
2007,09,19,04,45,8.90
2007,09,19,04,46,8.90
2007,09,19,04,47,8.90
2007,09,19,04,48,8.90
2007,09,19,04,49,8.90
2007,09,19,04,50,8.90
2007,09,19,04,51,8.90
2007,09,19,04,52,8.80
2007,09,19,04,53,8.80
2007,09,19,04,54,8.80
2007,09,19,04,55,8.80
2007,09,19,04,56,8.80
2007,09,19,04,57,8.70
2007,09,19,04,58,8.70
2007,09,19,04,59,8.70
2007,09,19,05,00,8.80
2007,09,19,05,01,8.80
2007,09,19,05,02,8.80
2007,09,19,05,03,8.80
2007,09,19,05,04,8.80
2007,09,19,05,05,8.70
2007,09,19,05,06,8.70
2007,09,19,05,07,8.70
2007,09,19,05,08,8.70
2007,09,19,05,09,8.70
2007,09,19,05,10,8.60
2007,09,19,05,11,8.60
2007,09,19,05,12,8.60
2007,09,19,05,13,8.60
2007,09,19,05,14,8.60
2007,09,19,05,15,8.60
2007,09,19,05,16,8.50
2007,09,19,05,17,8.50
2007,09,19,05,18,8.50
2007,09,19,05,19,8.50
2007,09,19,05,20,8.40
2007,09,19,05,21,8.40
2007,09,19,05,22,8.40
2007,09,19,05,23,8.40
2007,09,19,05,24,8.40
2007,09,19,05,25,8.40
2007,09,19,05,26,8.40
2007,09,19,05,27,8.40
2007,09,19,05,28,8.30
2007,09,19,05,29,8.30
2007,09,19,05,30,8.30
2007,09,19,05,31,8.30
2007,09,19,05,32,8.30
2007,09,19,05,33,8.30
2007,09,19,05,34,8.30
2007,09,19,05,35,8.30
2007,09,19,05,36,8.30
2007,09,19,05,37,8.30
2007,09,19,05,38,8.30
2007,09,19,05,39,8.30
2007,09,19,05,40,8.20
2007,09,19,05,41,8.20
2007,09,19,05,42,8.20
2007,09,19,05,43,8.20
2007,09,19,05,44,8.20
2007,09,19,05,45,8.20
2007,09,19,05,46,8.20
2007,09,19,05,47,8.20
2007,09,19,05,48,8.20
2007,09,19,05,49,8.20
2007,09,19,05,50,8.20
2007,09,19,05,51,8.30
2007,09,19,05,52,8.30
2007,09,19,05,53,8.30
2007,09,19,05,54,8.30
2007,09,19,05,55,8.30
2007,09,19,05,56,8.30
2007,09,19,05,57,8.30
2007,09,19,05,58,8.30
2007,09,19,05,59,8.20
2007,09,19,06,00,8.20
2007,09,19,06,01,8.20
2007,09,19,06,02,8.20
2007,09,19,06,03,8.10
2007,09,19,06,04,8.10
2007,09,19,06,05,8.10
2007,09,19,06,06,8.00
2007,09,19,06,07,8.00
2007,09,19,06,08,8.00
2007,09,19,06,09,7.90
2007,09,19,06,10,7.90
2007,09,19,06,11,7.90
2007,09,19,06,12,7.90
2007,09,19,06,13,7.90
2007,09,19,06,14,7.90
2007,09,19,06,15,7.90
2007,09,19,06,16,7.90
2007,09,19,06,17,7.90
2007,09,19,06,18,7.90
2007,09,19,06,19,7.90
2007,09,19,06,20,7.80
2007,09,19,06,21,7.80
2007,09,19,06,22,7.80
2007,09,19,06,23,7.80
2007,09,19,06,24,7.80
2007,09,19,06,25,7.80
2007,09,19,06,26,7.80
2007,09,19,06,27,7.80
2007,09,19,06,28,7.80
2007,09,19,06,29,7.80
2007,09,19,06,30,7.80
2007,09,19,06,31,7.70
2007,09,19,06,32,7.70
2007,09,19,06,33,7.70
2007,09,19,06,34,7.70
2007,09,19,06,35,7.70
2007,09,19,06,36,7.70
2007,09,19,06,37,7.80
2007,09,19,06,38,7.80
2007,09,19,06,39,7.80
2007,09,19,06,40,7.80
2007,09,19,06,41,7.80
2007,09,19,06,42,7.80
2007,09,19,06,43,7.80
2007,09,19,06,44,7.80
2007,09,19,06,45,7.80
2007,09,19,06,46,7.80
2007,09,19,06,47,7.80
2007,09,19,06,48,7.80
2007,09,19,06,49,7.80
2007,09,19,06,50,7.70
2007,09,19,06,51,7.70
2007,09,19,06,52,7.70
2007,09,19,06,53,7.70
2007,09,19,06,54,7.70
2007,09,19,06,55,7.70
2007,09,19,06,56,7.70
2007,09,19,06,57,7.70
2007,09,19,06,58,7.70
2007,09,19,06,59,7.70
2007,09,19,07,00,7.70
2007,09,19,07,01,7.70
2007,09,19,07,02,7.70
2007,09,19,07,03,7.70
2007,09,19,07,04,7.70
2007,09,19,07,05,7.70
2007,09,19,07,06,7.70
2007,09,19,07,07,7.70
2007,09,19,07,08,7.70
2007,09,19,07,09,7.60
2007,09,19,07,10,7.60
2007,09,19,07,11,7.60
2007,09,19,07,12,7.60
2007,09,19,07,13,7.60
2007,09,19,07,14,7.60
2007,09,19,07,15,7.60
2007,09,19,07,16,7.60
2007,09,19,07,17,7.60
2007,09,19,07,18,7.60
2007,09,19,07,19,7.60
2007,09,19,07,20,7.60
2007,09,19,07,21,7.60
2007,09,19,07,22,7.60
2007,09,19,07,23,7.60
2007,09,19,07,24,7.60
2007,09,19,07,25,7.60
2007,09,19,07,26,7.60
2007,09,19,07,27,7.60
2007,09,19,07,28,7.60
2007,09,19,07,29,7.60
2007,09,19,07,30,7.60
2007,09,19,07,31,7.70
2007,09,19,07,32,7.70
2007,09,19,07,33,7.70
2007,09,19,07,34,7.70
2007,09,19,07,35,7.70
2007,09,19,07,36,7.80
2007,09,19,07,37,7.80
2007,09,19,07,38,7.80
2007,09,19,07,39,7.90
2007,09,19,07,40,7.90
2007,09,19,07,41,8.00
2007,09,19,07,42,8.10
2007,09,19,07,43,8.10
2007,09,19,07,44,8.20
2007,09,19,07,45,8.20
2007,09,19,07,46,8.20
2007,09,19,07,47,8.30
2007,09,19,07,48,8.30
2007,09,19,07,49,8.30
2007,09,19,07,50,8.40
2007,09,19,07,51,8.40
2007,09,19,07,52,8.40
2007,09,19,07,53,8.50
2007,09,19,07,54,8.50
2007,09,19,07,55,8.60
2007,09,19,07,56,8.60
2007,09,19,07,57,8.60
2007,09,19,07,58,8.70
2007,09,19,07,59,8.70
2007,09,19,08,00,8.80
2007,09,19,08,01,8.80
2007,09,19,08,02,8.80
2007,09,19,08,03,8.90
2007,09,19,08,04,8.90
2007,09,19,08,05,9.00
2007,09,19,08,06,9.10
2007,09,19,08,07,9.10
2007,09,19,08,08,9.10
2007,09,19,08,09,9.10
2007,09,19,08,10,9.20
2007,09,19,08,11,9.20
2007,09,19,08,12,9.30
2007,09,19,08,13,9.30
2007,09,19,08,14,9.40
2007,09,19,08,15,9.40
2007,09,19,08,16,9.50
2007,09,19,08,17,9.60
2007,09,19,08,18,9.60
2007,09,19,08,19,9.70
2007,09,19,08,20,9.70
2007,09,19,08,21,9.80
2007,09,19,08,22,9.80
2007,09,19,08,23,9.90
2007,09,19,08,24,9.90
2007,09,19,08,25,9.90
2007,09,19,08,26,10.00
2007,09,19,08,27,10.00
2007,09,19,08,28,10.10
2007,09,19,08,29,10.10
2007,09,19,08,30,10.30
2007,09,19,08,31,10.40
2007,09,19,08,32,10.40
2007,09,19,08,33,10.50
2007,09,19,08,34,10.50
2007,09,19,08,35,10.60
2007,09,19,08,36,10.70
2007,09,19,08,37,10.80
2007,09,19,08,38,10.80
2007,09,19,08,39,10.90
2007,09,19,08,40,11.00
2007,09,19,08,41,11.00
2007,09,19,08,42,11.10
2007,09,19,08,43,11.10
2007,09,19,08,44,11.20
2007,09,19,08,45,11.20
2007,09,19,08,46,11.30
2007,09,19,08,47,11.30
2007,09,19,08,48,11.30
2007,09,19,08,49,11.30
2007,09,19,08,50,11.40
2007,09,19,08,51,11.40
2007,09,19,08,52,11.40
2007,09,19,08,53,11.50
2007,09,19,08,54,11.50
2007,09,19,08,55,11.60
2007,09,19,08,56,11.60
2007,09,19,08,57,11.70
2007,09,19,08,58,11.70
2007,09,19,08,59,11.70
2007,09,19,09,00,11.70
2007,09,19,09,01,11.80
2007,09,19,09,02,11.80
2007,09,19,09,03,11.80
2007,09,19,09,04,11.80
2007,09,19,09,05,11.90
2007,09,19,09,06,11.90
2007,09,19,09,07,11.90
2007,09,19,09,08,12.00
2007,09,19,09,09,12.00
2007,09,19,09,10,12.10
2007,09,19,09,11,12.20
2007,09,19,09,12,12.20
2007,09,19,09,13,12.30
2007,09,19,09,14,12.30
2007,09,19,09,15,12.40
2007,09,19,09,16,12.40
2007,09,19,09,17,12.40
2007,09,19,09,18,12.50
2007,09,19,09,19,12.60
2007,09,19,09,20,12.60
2007,09,19,09,21,12.70
2007,09,19,09,22,12.70
2007,09,19,09,23,12.80
2007,09,19,09,24,12.80
2007,09,19,09,25,12.80
2007,09,19,09,26,12.90
2007,09,19,09,27,12.90
2007,09,19,09,28,13.00
2007,09,19,09,29,13.10
2007,09,19,09,30,13.10
2007,09,19,09,31,13.10
2007,09,19,09,32,13.10
2007,09,19,09,33,13.10
2007,09,19,09,34,13.10
2007,09,19,09,35,13.00
2007,09,19,09,36,13.00
2007,09,19,09,37,13.00
2007,09,19,09,38,13.00
2007,09,19,09,39,13.00
2007,09,19,09,40,13.10
2007,09,19,09,41,13.10
2007,09,19,09,42,13.10
2007,09,19,09,43,13.10
2007,09,19,09,44,13.10
2007,09,19,09,45,13.20
2007,09,19,09,46,13.20
2007,09,19,09,47,13.30
2007,09,19,09,48,13.30
2007,09,19,09,49,13.30
2007,09,19,09,50,13.30
2007,09,19,09,51,13.30
2007,09,19,09,52,13.30
2007,09,19,09,53,13.40
2007,09,19,09,54,13.40
2007,09,19,09,55,13.50
2007,09,19,09,56,13.50
2007,09,19,09,57,13.60
2007,09,19,09,58,13.70
2007,09,19,09,59,13.70
2007,09,19,10,00,13.80
2007,09,19,10,01,13.80
2007,09,19,10,02,13.80
2007,09,19,10,03,13.90
2007,09,19,10,04,13.90
2007,09,19,10,05,13.90
2007,09,19,10,06,13.90
2007,09,19,10,07,14.00
2007,09,19,10,08,13.90
2007,09,19,10,09,13.90
2007,09,19,10,10,14.00
2007,09,19,10,11,14.00
2007,09,19,10,12,14.00
2007,09,19,10,13,14.10
2007,09,19,10,14,14.10
2007,09,19,10,15,14.10
2007,09,19,10,16,14.20
2007,09,19,10,17,14.20
2007,09,19,10,18,14.20
2007,09,19,10,19,14.30
2007,09,19,10,20,14.30
2007,09,19,10,21,14.30
2007,09,19,10,22,14.30
2007,09,19,10,23,14.30
2007,09,19,10,24,14.30
2007,09,19,10,25,14.30
2007,09,19,10,26,14.30
2007,09,19,10,27,14.30
2007,09,19,10,28,14.40
2007,09,19,10,29,14.40
2007,09,19,10,30,14.50
2007,09,19,10,31,14.50
2007,09,19,10,32,14.60
2007,09,19,10,33,14.70
2007,09,19,10,34,14.80
2007,09,19,10,35,14.80
2007,09,19,10,36,14.90
2007,09,19,10,37,14.90
2007,09,19,10,38,15.00
2007,09,19,10,39,15.00
2007,09,19,10,40,15.00
2007,09,19,10,41,15.00
2007,09,19,10,42,15.00
2007,09,19,10,43,15.10
2007,09,19,10,44,15.20
2007,09,19,10,45,15.20
2007,09,19,10,46,15.20
2007,09,19,10,47,15.20
2007,09,19,10,48,15.20
2007,09,19,10,49,15.20
2007,09,19,10,50,15.20
2007,09,19,10,51,15.20
2007,09,19,10,52,15.20
2007,09,19,10,53,15.20
2007,09,19,10,54,15.30
2007,09,19,10,55,15.30
2007,09,19,10,56,15.40
2007,09,19,10,57,15.50
2007,09,19,10,58,15.50
2007,09,19,10,59,15.60
2007,09,19,11,00,15.60
2007,09,19,11,01,15.60
2007,09,19,11,02,15.70
2007,09,19,11,03,15.70
2007,09,19,11,04,15.70
2007,09,19,11,05,15.70
2007,09,19,11,06,15.70
2007,09,19,11,07,15.60
2007,09,19,11,08,15.50
2007,09,19,11,09,15.50
2007,09,19,11,10,15.50
2007,09,19,11,11,15.40
2007,09,19,11,12,15.40
2007,09,19,11,13,15.40
2007,09,19,11,14,15.40
2007,09,19,11,15,15.40
2007,09,19,11,16,15.40
2007,09,19,11,17,15.40
2007,09,19,11,18,15.30
2007,09,19,11,19,15.30
2007,09,19,11,20,15.30
2007,09,19,11,21,15.30
2007,09,19,11,22,15.30
2007,09,19,11,23,15.20
2007,09,19,11,24,15.20
2007,09,19,11,25,15.20
2007,09,19,11,26,15.20
2007,09,19,11,27,15.20
2007,09,19,11,28,15.20
2007,09,19,11,29,15.20
2007,09,19,11,30,15.20
2007,09,19,11,31,15.10
2007,09,19,11,32,15.00
2007,09,19,11,33,15.00
2007,09,19,11,34,15.00
2007,09,19,11,35,15.00
2007,09,19,11,36,15.00
2007,09,19,11,37,15.00
2007,09,19,11,38,15.00
2007,09,19,11,39,15.00
2007,09,19,11,40,15.00
2007,09,19,11,41,15.00
2007,09,19,11,42,15.10
2007,09,19,11,43,15.10
2007,09,19,11,44,15.20
2007,09,19,11,45,15.30
2007,09,19,11,46,15.30
2007,09,19,11,47,15.40
2007,09,19,11,48,15.50
2007,09,19,11,49,15.50
2007,09,19,11,50,15.60
2007,09,19,11,51,15.70
2007,09,19,11,52,15.80
2007,09,19,11,53,15.80
2007,09,19,11,54,15.90
2007,09,19,11,55,15.90
2007,09,19,11,56,15.90
2007,09,19,11,57,15.90
2007,09,19,11,58,15.90
2007,09,19,11,59,15.80
2007,09,19,12,00,15.80
2007,09,19,12,01,15.90
2007,09,19,12,02,15.90
2007,09,19,12,03,15.90
2007,09,19,12,04,16.00
2007,09,19,12,05,16.00
2007,09,19,12,06,16.10
2007,09,19,12,07,16.10
2007,09,19,12,08,16.10
2007,09,19,12,09,16.10
2007,09,19,12,10,16.10
2007,09,19,12,11,16.20
2007,09,19,12,12,16.20
2007,09,19,12,13,16.20
2007,09,19,12,14,16.20
2007,09,19,12,15,16.20
2007,09,19,12,16,16.20
2007,09,19,12,17,16.20
2007,09,19,12,18,16.30
2007,09,19,12,19,16.30
2007,09,19,12,20,16.40
2007,09,19,12,21,16.40
2007,09,19,12,22,16.40
2007,09,19,12,23,16.40
2007,09,19,12,24,16.30
2007,09,19,12,25,16.30
2007,09,19,12,26,16.30
2007,09,19,12,27,16.30
2007,09,19,12,28,16.30
2007,09,19,12,29,16.30
2007,09,19,12,30,16.30
2007,09,19,12,31,16.30
2007,09,19,12,32,16.30
2007,09,19,12,33,16.30
2007,09,19,12,34,16.20
2007,09,19,12,35,16.20
2007,09,19,12,36,16.10
2007,09,19,12,37,16.00
2007,09,19,12,38,15.90
2007,09,19,12,39,15.80
2007,09,19,12,40,15.80
2007,09,19,12,41,15.80
2007,09,19,12,42,15.90
2007,09,19,12,43,16.00
2007,09,19,12,44,16.10
2007,09,19,12,45,16.10
2007,09,19,12,46,16.00
2007,09,19,12,47,15.90
2007,09,19,12,48,15.90
2007,09,19,12,49,15.90
2007,09,19,12,50,16.00
2007,09,19,12,51,16.00
2007,09,19,12,52,16.10
2007,09,19,12,53,16.10
2007,09,19,12,54,16.10
2007,09,19,12,55,16.10
2007,09,19,12,56,16.10
2007,09,19,12,57,16.20
2007,09,19,12,58,16.10
2007,09,19,12,59,16.20
2007,09,19,13,00,16.20
2007,09,19,13,01,16.20
2007,09,19,13,02,16.20
2007,09,19,13,03,16.30
2007,09,19,13,04,16.30
2007,09,19,13,05,16.30
2007,09,19,13,06,16.30
2007,09,19,13,07,16.30
2007,09,19,13,08,16.30
2007,09,19,13,09,16.40
2007,09,19,13,10,16.40
2007,09,19,13,11,16.50
2007,09,19,13,12,16.50
2007,09,19,13,13,16.50
2007,09,19,13,14,16.40
2007,09,19,13,15,16.40
2007,09,19,13,16,16.40
2007,09,19,13,17,16.50
2007,09,19,13,18,16.50
2007,09,19,13,19,16.50
2007,09,19,13,20,16.50
2007,09,19,13,21,16.60
2007,09,19,13,22,16.60
2007,09,19,13,23,16.60
2007,09,19,13,24,16.60
2007,09,19,13,25,16.60
2007,09,19,13,26,16.60
2007,09,19,13,27,16.60
2007,09,19,13,28,16.60
2007,09,19,13,29,16.60
2007,09,19,13,30,16.60
2007,09,19,13,31,16.60
2007,09,19,13,32,16.60
2007,09,19,13,33,16.50
2007,09,19,13,34,16.40
2007,09,19,13,35,16.40
2007,09,19,13,36,16.40
2007,09,19,13,37,16.40
2007,09,19,13,38,16.50
2007,09,19,13,39,16.50
2007,09,19,13,40,16.50
2007,09,19,13,41,16.60
2007,09,19,13,42,16.60
2007,09,19,13,43,16.60
2007,09,19,13,44,16.70
2007,09,19,13,45,16.70
2007,09,19,13,46,16.80
2007,09,19,13,47,16.90
2007,09,19,13,48,17.00
2007,09,19,13,49,17.10
2007,09,19,13,50,17.10
2007,09,19,13,51,17.20
2007,09,19,13,52,17.20
2007,09,19,13,53,17.20
2007,09,19,13,54,17.20
2007,09,19,13,55,17.10
2007,09,19,13,56,17.10
2007,09,19,13,57,17.10
2007,09,19,13,58,17.10
2007,09,19,13,59,17.10
2007,09,19,14,00,17.10
2007,09,19,14,01,17.00
2007,09,19,14,02,16.90
2007,09,19,14,03,16.90
2007,09,19,14,04,16.80
2007,09,19,14,05,16.80
2007,09,19,14,06,16.90
2007,09,19,14,07,16.90
2007,09,19,14,08,17.00
2007,09,19,14,09,17.10
2007,09,19,14,10,17.10
2007,09,19,14,11,17.20
2007,09,19,14,12,17.20
2007,09,19,14,13,17.30
2007,09,19,14,14,17.40
2007,09,19,14,15,17.50
2007,09,19,14,16,17.40
2007,09,19,14,17,17.30
2007,09,19,14,18,17.30
2007,09,19,14,19,17.30
2007,09,19,14,20,17.30
2007,09,19,14,21,17.30
2007,09,19,14,22,17.40
2007,09,19,14,23,17.40
2007,09,19,14,24,17.50
2007,09,19,14,25,17.50
2007,09,19,14,26,17.40
2007,09,19,14,27,17.40
2007,09,19,14,28,17.40
2007,09,19,14,29,17.50
2007,09,19,14,30,17.60
2007,09,19,14,31,17.70
2007,09,19,14,32,17.80
2007,09,19,14,33,17.80
2007,09,19,14,34,17.80
2007,09,19,14,35,17.80
2007,09,19,14,36,17.70
2007,09,19,14,37,17.70
2007,09,19,14,38,17.70
2007,09,19,14,39,17.70
2007,09,19,14,40,17.80
2007,09,19,14,41,17.80
2007,09,19,14,42,17.90
2007,09,19,14,43,18.00
2007,09,19,14,44,18.20
2007,09,19,14,45,18.20
2007,09,19,14,46,18.30
2007,09,19,14,47,18.40
2007,09,19,14,48,18.40
2007,09,19,14,49,18.40
2007,09,19,14,50,18.40
2007,09,19,14,51,18.50
2007,09,19,14,52,18.50
2007,09,19,14,53,18.60
2007,09,19,14,54,18.60
2007,09,19,14,55,18.60
2007,09,19,14,56,18.60
2007,09,19,14,57,18.60
2007,09,19,14,58,18.70
2007,09,19,14,59,18.70
2007,09,19,15,00,18.70
2007,09,19,15,01,18.80
2007,09,19,15,02,18.80
2007,09,19,15,03,18.80
2007,09,19,15,04,18.80
2007,09,19,15,05,18.80
2007,09,19,15,06,18.80
2007,09,19,15,07,18.80
2007,09,19,15,08,18.80
2007,09,19,15,09,18.70
2007,09,19,15,10,18.70
2007,09,19,15,11,18.60
2007,09,19,15,12,18.60
2007,09,19,15,13,18.60
2007,09,19,15,14,18.60
2007,09,19,15,15,18.60
2007,09,19,15,16,18.60
2007,09,19,15,17,18.70
2007,09,19,15,18,18.70
2007,09,19,15,19,18.70
2007,09,19,15,20,18.70
2007,09,19,15,21,18.60
2007,09,19,15,22,18.50
2007,09,19,15,23,18.40
2007,09,19,15,24,18.40
2007,09,19,15,25,18.30
2007,09,19,15,26,18.20
2007,09,19,15,27,18.30
2007,09,19,15,28,18.20
2007,09,19,15,29,18.20
2007,09,19,15,30,18.20
2007,09,19,15,31,18.20
2007,09,19,15,32,18.30
2007,09,19,15,33,18.20
2007,09,19,15,34,18.20
2007,09,19,15,35,18.30
2007,09,19,15,36,18.40
2007,09,19,15,37,18.40
2007,09,19,15,38,18.40
2007,09,19,15,39,18.40
2007,09,19,15,40,18.40
2007,09,19,15,41,18.40
2007,09,19,15,42,18.40
2007,09,19,15,43,18.40
2007,09,19,15,44,18.40
2007,09,19,15,45,18.40
2007,09,19,15,46,18.40
2007,09,19,15,47,18.30
2007,09,19,15,48,18.30
2007,09,19,15,49,18.30
2007,09,19,15,50,18.30
2007,09,19,15,51,18.20
2007,09,19,15,52,18.30
2007,09,19,15,53,18.30
2007,09,19,15,54,18.40
2007,09,19,15,55,18.40
2007,09,19,15,56,18.40
2007,09,19,15,57,18.40
2007,09,19,15,58,18.40
2007,09,19,15,59,18.40
2007,09,19,16,00,18.40
2007,09,19,16,01,18.50
2007,09,19,16,02,18.50
2007,09,19,16,03,18.60
2007,09,19,16,04,18.70
2007,09,19,16,05,18.60
2007,09,19,16,06,18.50
2007,09,19,16,07,18.50
2007,09,19,16,08,18.50
2007,09,19,16,09,18.50
2007,09,19,16,10,18.60
2007,09,19,16,11,18.60
2007,09,19,16,12,18.70
2007,09,19,16,13,18.80
2007,09,19,16,14,18.80
2007,09,19,16,15,18.80
2007,09,19,16,16,18.80
2007,09,19,16,17,18.90
2007,09,19,16,18,19.00
2007,09,19,16,19,19.10
2007,09,19,16,20,19.10
2007,09,19,16,21,19.20
2007,09,19,16,22,19.20
2007,09,19,16,23,19.30
2007,09,19,16,24,19.30
2007,09,19,16,25,19.40
2007,09,19,16,26,19.40
2007,09,19,16,27,19.40
2007,09,19,16,28,19.40
2007,09,19,16,29,19.40
2007,09,19,16,30,19.30
2007,09,19,16,31,19.30
2007,09,19,16,32,19.30
2007,09,19,16,33,19.20
2007,09,19,16,34,19.20
2007,09,19,16,35,19.20
2007,09,19,16,36,19.20
2007,09,19,16,37,19.20
2007,09,19,16,38,19.20
2007,09,19,16,39,19.10
2007,09,19,16,40,19.10
2007,09,19,16,41,19.10
2007,09,19,16,42,19.20
2007,09,19,16,43,19.10
2007,09,19,16,44,19.10
2007,09,19,16,45,19.10
2007,09,19,16,46,19.00
2007,09,19,16,47,19.00
2007,09,19,16,48,18.90
2007,09,19,16,49,18.80
2007,09,19,16,50,18.70
2007,09,19,16,51,18.60
2007,09,19,16,52,18.60
2007,09,19,16,53,18.60
2007,09,19,16,54,18.70
2007,09,19,16,55,18.70
2007,09,19,16,56,18.70
2007,09,19,16,57,18.70
2007,09,19,16,58,18.80
2007,09,19,16,59,18.80
2007,09,19,17,00,18.80
2007,09,19,17,01,18.80
2007,09,19,17,02,18.70
2007,09,19,17,03,18.70
2007,09,19,17,04,18.70
2007,09,19,17,05,18.70
2007,09,19,17,06,18.70
2007,09,19,17,07,18.70
2007,09,19,17,08,18.70
2007,09,19,17,09,18.70
2007,09,19,17,10,18.70
2007,09,19,17,11,18.70
2007,09,19,17,12,18.80
2007,09,19,17,13,18.80
2007,09,19,17,14,18.80
2007,09,19,17,15,18.80
2007,09,19,17,16,18.80
2007,09,19,17,17,18.70
2007,09,19,17,18,18.70
2007,09,19,17,19,18.60
2007,09,19,17,20,18.60
2007,09,19,17,21,18.60
2007,09,19,17,22,18.60
2007,09,19,17,23,18.60
2007,09,19,17,24,18.60
2007,09,19,17,25,18.70
2007,09,19,17,26,18.70
2007,09,19,17,27,18.70
2007,09,19,17,28,18.70
2007,09,19,17,29,18.70
2007,09,19,17,30,18.70
2007,09,19,17,31,18.60
2007,09,19,17,32,18.60
2007,09,19,17,33,18.60